| time (UTC) | temp F | wind direction | speed MPH | gust MPH | rain 1hr in | rain 24hr in | rain mn in | humidity % | barometer mb |
| 20260505152256 | 56 | 138 | 1.0 | 2.0 | 0.00 | 0.00 | 0.00 | 66 | 1009.8 |
| 20260505151755 | 55 | 135 | 2.0 | 2.0 | 0.00 | 0.00 | 0.00 | 66 | 1009.8 |
| 20260505151253 | 55 | 134 | 1.0 | 1.0 | 0.00 | 0.00 | 0.00 | 65 | 1009.9 |
| 20260505150750 | 56 | 107 | 0.0 | 1.0 | 0.00 | 0.00 | 0.00 | 65 | 1009.9 |
| 20260505150247 | 57 | 114 | 2.0 | 2.0 | 0.00 | 0.00 | 0.00 | 66 | 1009.8 |
| 20260505140217 | 56 | 328 | 1.0 | 1.0 | 0.00 | 0.00 | 0.00 | 62 | 1009.1 |
| 20260505130141 | 53 | 290 | 1.0 | 1.0 | 0.00 | 0.00 | 0.00 | 63 | 1008.3 |
| 20260505124631 | 51 | 290 | 1.0 | 1.0 | 0.00 | 0.00 | 0.00 | 66 | 1008.3 |
| 20260505124127 | 51 | 290 | 2.0 | 2.0 | 0.00 | 0.00 | 0.00 | 66 | 1008.3 |
| 20260505123623 | 51 | 292 | 2.0 | 2.0 | 0.00 | 0.00 | 0.00 | 67 | 1008.3 |
| 20260505123120 | 50 | 295 | 1.0 | 1.0 | 0.00 | 0.00 | 0.00 | 67 | 1008.3 |
| 20260505122617 | 50 | 295 | 2.0 | 2.0 | 0.00 | 0.00 | 0.00 | 67 | 1008.2 |
| 20260505122114 | 50 | 295 | 1.0 | 1.0 | 0.00 | 0.00 | 0.00 | 67 | 1008.3 |
| 20260505121610 | 49 | 297 | 2.0 | 2.0 | 0.00 | 0.00 | 0.00 | 70 | 1008.2 |
| 20260505121107 | 48 | 298 | 1.0 | 1.0 | 0.00 | 0.00 | 0.00 | 73 | 1008.1 |
| 20260505120604 | 48 | 298 | 1.0 | 1.0 | 0.00 | 0.00 | 0.00 | 72 | 1008.2 |
| 20260505120059 | 49 | 299 | 1.0 | 1.0 | 0.00 | 0.00 | 0.00 | 71 | 1008.1 |
| 20260505115554 | 49 | 301 | 2.0 | 2.0 | 0.00 | 0.00 | 0.00 | 71 | 1008.2 |
| 20260505115052 | 49 | 301 | 2.0 | 2.0 | 0.00 | 0.00 | 0.00 | 71 | 1008.0 |
| 20260505114548 | 48 | 306 | 2.0 | 2.0 | 0.00 | 0.00 | 0.00 | 72 | 1008.1 |
| 20260505114045 | 48 | 309 | 2.0 | 2.0 | 0.00 | 0.00 | 0.00 | 73 | 1007.8 |
| 20260505113541 | 48 | 310 | 0.0 | 0.0 | 0.00 | 0.00 | 0.00 | 73 | 1008.0 |
| 20260505113038 | 48 | 310 | 0.0 | 0.0 | 0.00 | 0.00 | 0.00 | 73 | 1008.1 |
| 20260505112534 | 48 | 310 | 0.0 | 0.0 | 0.00 | 0.00 | 0.00 | 72 | 1007.9 |
| 20260505112033 | 48 | 310 | 0.0 | 0.0 | 0.00 | 0.00 | 0.00 | 73 | 1007.9 |
| 20260505111532 | 48 | 310 | 0.0 | 0.0 | 0.00 | 0.00 | 0.00 | 73 | 1007.9 |
| 20260505111028 | 46 | 310 | 2.0 | 2.0 | 0.00 | 0.00 | 0.00 | 76 | 1007.9 |
| 20260505110525 | 47 | 329 | 2.0 | 2.0 | 0.00 | 0.00 | 0.00 | 75 | 1007.8 |
| 20260505101958 | 49 | 308 | 2.0 | 2.0 | 0.00 | 0.00 | 0.00 | 71 | 1007.7 |
| 20260505101455 | 46 | 336 | 2.0 | 2.0 | 0.00 | 0.00 | 0.00 | 76 | 1007.6 |
| 20260505100952 | 46 | 341 | 1.0 | 1.0 | 0.00 | 0.00 | 0.00 | 77 | 1007.4 |
| 20260505100449 | 49 | 340 | 2.0 | 3.0 | 0.00 | 0.00 | 0.00 | 71 | 1007.5 |
| 20260505095945 | 50 | 329 | 1.0 | 1.0 | 0.00 | 0.00 | 0.00 | 68 | 1007.4 |
| 20260505095441 | 52 | 297 | 0.0 | 0.0 | 0.00 | 0.00 | 0.00 | 64 | 1007.4 |
| 20260505094938 | 53 | 297 | 0.0 | 0.0 | 0.00 | 0.00 | 0.00 | 61 | 1007.4 |
| 20260505094435 | 53 | 297 | 1.0 | 1.0 | 0.00 | 0.00 | 0.00 | 62 | 1007.2 |
| 20260505093931 | 53 | 297 | 2.0 | 2.0 | 0.00 | 0.00 | 0.00 | 62 | 1007.4 |
| 20260505093428 | 53 | 297 | 1.0 | 1.0 | 0.00 | 0.00 | 0.00 | 61 | 1007.3 |
| 20260505092925 | 53 | 297 | 1.0 | 1.0 | 0.00 | 0.00 | 0.00 | 61 | 1007.2 |
| 20260505092423 | 53 | 297 | 1.0 | 1.0 | 0.00 | 0.00 | 0.00 | 62 | 1007.2 |
| 20260505091920 | 53 | 297 | 1.0 | 1.0 | 0.00 | 0.00 | 0.00 | 63 | 1007.2 |
| 20260505091418 | 52 | 298 | 2.0 | 2.0 | 0.00 | 0.00 | 0.00 | 63 | 1007.2 |
| 20260505090916 | 52 | 298 | 2.0 | 2.0 | 0.00 | 0.00 | 0.00 | 64 | 1007.0 |
| 20260505090414 | 51 | 299 | 1.0 | 1.0 | 0.00 | 0.00 | 0.00 | 65 | 1007.0 |
| 20260505085911 | 51 | 299 | 0.0 | 0.0 | 0.00 | 0.00 | 0.00 | 67 | 1007.0 |
| 20260505085409 | 51 | 299 | 1.0 | 1.0 | 0.00 | 0.00 | 0.00 | 68 | 1007.2 |
| 20260505084906 | 50 | 300 | 1.0 | 1.0 | 0.00 | 0.00 | 0.00 | 68 | 1006.9 |
| 20260505084404 | 48 | 331 | 2.0 | 2.0 | 0.00 | 0.00 | 0.00 | 72 | 1006.9 |
| 20260505083902 | 47 | 337 | 1.0 | 1.0 | 0.00 | 0.00 | 0.00 | 77 | 1007.0 |
| 20260505083359 | 48 | 337 | 0.0 | 0.0 | 0.00 | 0.00 | 0.00 | 77 | 1007.0 |
| 20260505082855 | 49 | 337 | 1.0 | 1.0 | 0.00 | 0.00 | 0.00 | 74 | 1007.2 |
| 20260505082351 | 48 | 337 | 0.0 | 0.0 | 0.00 | 0.00 | 0.00 | 75 | 1006.8 |
| 20260505081848 | 48 | 337 | 2.0 | 2.0 | 0.00 | 0.00 | 0.00 | 76 | 1007.0 |
| 20260505081345 | 50 | 333 | 2.0 | 3.0 | 0.00 | 0.00 | 0.00 | 73 | 1007.2 |
| 20260505080841 | 49 | 338 | 1.0 | 1.0 | 0.00 | 0.00 | 0.00 | 73 | 1006.9 |
| 20260505080337 | 48 | 334 | 2.0 | 2.0 | 0.00 | 0.00 | 0.00 | 74 | 1006.9 |
| 20260505075833 | 49 | 336 | 2.0 | 2.0 | 0.00 | 0.00 | 0.00 | 75 | 1007.0 |
| 20260505075330 | 54 | 337 | 2.0 | 2.0 | 0.00 | 0.00 | 0.00 | 66 | 1006.9 |
| 20260505074827 | 55 | 286 | 2.0 | 2.0 | 0.00 | 0.00 | 0.00 | 58 | 1007.0 |
| 20260505074325 | 55 | 286 | 1.0 | 1.0 | 0.00 | 0.00 | 0.00 | 60 | 1007.2 |
| 20260505073822 | 55 | 286 | 1.0 | 1.0 | 0.00 | 0.00 | 0.00 | 60 | 1007.3 |
| 20260505073320 | 55 | 286 | 1.0 | 1.0 | 0.00 | 0.00 | 0.00 | 60 | 1007.0 |
| 20260505072817 | 55 | 286 | 2.0 | 2.0 | 0.00 | 0.00 | 0.00 | 60 | 1007.0 |
| 20260505072313 | 55 | 289 | 2.0 | 2.0 | 0.00 | 0.00 | 0.00 | 62 | 1006.7 |
| 20260505071809 | 54 | 291 | 2.0 | 2.0 | 0.00 | 0.00 | 0.00 | 63 | 1007.0 |
| 20260505071306 | 54 | 291 | 1.0 | 1.0 | 0.00 | 0.00 | 0.00 | 64 | 1006.8 |
| 20260505070804 | 54 | 291 | 1.0 | 1.0 | 0.00 | 0.00 | 0.00 | 65 | 1006.8 |
| 20260505070300 | 53 | 291 | 1.0 | 1.0 | 0.00 | 0.00 | 0.00 | 67 | 1006.7 |
| 20260505065755 | 51 | 291 | 1.0 | 1.0 | 0.00 | 0.00 | 0.00 | 70 | 1006.6 |
| 20260505065252 | 51 | 291 | 0.0 | 0.0 | 0.00 | 0.00 | 0.00 | 72 | 1006.6 |
| 20260505064749 | 50 | 291 | 1.0 | 1.0 | 0.00 | 0.00 | 0.00 | 74 | 1006.7 |
| 20260505064246 | 50 | 291 | 1.0 | 1.0 | 0.00 | 0.00 | 0.00 | 75 | 1006.4 |
| 20260505063744 | 52 | 289 | 1.0 | 1.0 | 0.00 | 0.00 | 0.00 | 71 | 1006.5 |
| 20260505063240 | 54 | 288 | 0.0 | 0.0 | 0.00 | 0.00 | 0.00 | 66 | 1006.5 |
| 20260505062736 | 55 | 288 | 0.0 | 0.0 | 0.00 | 0.00 | 0.00 | 64 | 1006.5 |
| 20260505062234 | 55 | 288 | 0.0 | 0.0 | 0.00 | 0.00 | 0.00 | 62 | 1006.5 |
| 20260505061731 | 55 | 288 | 0.0 | 0.0 | 0.00 | 0.00 | 0.00 | 62 | 1006.6 |
| 20260505061229 | 55 | 289 | 2.0 | 2.0 | 0.00 | 0.00 | 0.00 | 62 | 1006.5 |
| 20260505060726 | 56 | 296 | 1.0 | 1.0 | 0.00 | 0.00 | 0.00 | 62 | 1006.6 |
| 20260505060223 | 55 | 297 | 1.0 | 1.0 | 0.00 | 0.00 | 0.00 | 62 | 1006.6 |
| 20260505055718 | 55 | 297 | 1.0 | 1.0 | 0.00 | 0.00 | 0.00 | 62 | 1006.5 |
| 20260505055215 | 55 | 298 | 0.0 | 0.0 | 0.00 | 0.00 | 0.00 | 62 | 1006.3 |
| 20260505054712 | 56 | 298 | 1.0 | 1.0 | 0.00 | 0.00 | 0.00 | 61 | 1006.3 |
| 20260505054210 | 56 | 297 | 2.0 | 1.0 | 0.00 | 0.00 | 0.00 | 60 | 1006.4 |
| 20260505053708 | 56 | 297 | 1.0 | 1.0 | 0.00 | 0.00 | 0.00 | 60 | 1006.6 |
| 20260505053204 | 56 | 297 | 1.0 | 1.0 | 0.00 | 0.00 | 0.00 | 60 | 1006.3 |
| 20260505052701 | 55 | 286 | 2.0 | 2.0 | 0.00 | 0.00 | 0.00 | 62 | 1006.4 |
| 20260505052158 | 55 | 287 | 1.0 | 1.0 | 0.00 | 0.00 | 0.00 | 63 | 1006.3 |
| 20260505051655 | 56 | 288 | 2.0 | 1.0 | 0.00 | 0.00 | 0.00 | 62 | 1006.6 |
| 20260505051153 | 56 | 288 | 2.0 | 2.0 | 0.00 | 0.00 | 0.00 | 61 | 1006.3 |
| 20260505050651 | 57 | 293 | 2.0 | 2.0 | 0.00 | 0.00 | 0.00 | 60 | 1006.5 |
| 20260505050149 | 57 | 300 | 1.0 | 1.0 | 0.00 | 0.00 | 0.00 | 60 | 1006.3 |
| 20260505041619 | 57 | 350 | 1.0 | 1.0 | 0.00 | 0.00 | 0.00 | 59 | 1006.2 |
| 20260505041116 | 58 | 351 | 1.0 | 1.0 | 0.00 | 0.00 | 0.00 | 58 | 1006.4 |
| 20260505040613 | 58 | 351 | 0.0 | 1.0 | 0.00 | 0.00 | 0.00 | 57 | 1006.3 |
| 20260505040110 | 62 | 357 | 1.0 | 1.0 | 0.00 | 0.00 | 0.00 | 52 | 1006.3 |
| 20260505035606 | 63 | 291 | 0.0 | 0.0 | 0.00 | 0.00 | 0.00 | 45 | 1006.1 |
| 20260505035103 | 64 | 290 | 1.0 | 1.0 | 0.00 | 0.00 | 0.00 | 45 | 1006.1 |
| 20260505034559 | 64 | 290 | 1.0 | 1.0 | 0.00 | 0.00 | 0.00 | 44 | 1006.1 |
| 20260505034056 | 65 | 286 | 1.0 | 1.0 | 0.00 | 0.00 | 0.00 | 43 | 1005.7 |
| 20260505033553 | 65 | 285 | 2.0 | 2.0 | 0.00 | 0.00 | 0.00 | 42 | 1006.0 |
| 20260505033052 | 66 | 295 | 2.0 | 2.0 | 0.00 | 0.00 | 0.00 | 41 | 1006.0 |
| 20260505032549 | 66 | 292 | 2.0 | 2.0 | 0.00 | 0.00 | 0.00 | 41 | 1005.7 |
| 20260505032045 | 66 | 291 | 2.0 | 2.0 | 0.00 | 0.00 | 0.00 | 40 | 1005.6 |
| 20260505031543 | 66 | 287 | 2.0 | 2.0 | 0.00 | 0.00 | 0.00 | 40 | 1005.5 |
| 20260505031039 | 67 | 293 | 2.0 | 2.0 | 0.00 | 0.00 | 0.00 | 39 | 1005.5 |
| 20260505030536 | 67 | 288 | 1.0 | 1.0 | 0.00 | 0.00 | 0.00 | 38 | 1005.4 |
| 20260505030032 | 67 | 299 | 1.0 | 1.0 | 0.00 | 0.00 | 0.00 | 38 | 1005.4 |
| 20260505025528 | 68 | 303 | 2.0 | 2.0 | 0.00 | 0.00 | 0.00 | 37 | 1005.7 |
| 20260505025027 | 68 | 282 | 1.0 | 1.0 | 0.00 | 0.00 | 0.00 | 37 | 1005.4 |
| 20260505024524 | 69 | 303 | 1.0 | 1.0 | 0.00 | 0.00 | 0.00 | 36 | 1005.4 |
| 20260505024021 | 69 | 331 | 3.0 | 3.0 | 0.00 | 0.00 | 0.00 | 35 | 1005.1 |
| 20260505023518 | 69 | 315 | 2.0 | 3.0 | 0.00 | 0.00 | 0.00 | 35 | 1005.2 |
| 20260505023015 | 69 | 314 | 2.0 | 2.0 | 0.00 | 0.00 | 0.00 | 35 | 1005.3 |
| 20260505022513 | 68 | 303 | 2.0 | 2.0 | 0.00 | 0.00 | 0.00 | 34 | 1005.3 |
| 20260505022010 | 68 | 321 | 4.0 | 4.0 | 0.00 | 0.00 | 0.00 | 34 | 1005.0 |
| 20260505021506 | 68 | 321 | 2.0 | 2.0 | 0.00 | 0.00 | 0.00 | 34 | 1005.2 |
| 20260505021003 | 69 | 327 | 4.0 | 4.0 | 0.00 | 0.00 | 0.00 | 33 | 1005.2 |
| 20260505020457 | 69 | 318 | 5.0 | 6.0 | 0.00 | 0.00 | 0.00 | 31 | 1005.3 |
| 20260505015954 | 70 | 312 | 3.0 | 3.0 | 0.00 | 0.00 | 0.00 | 31 | 1005.2 |
| 20260505015452 | 71 | 327 | 6.0 | 6.0 | 0.00 | 0.00 | 0.00 | 30 | 1005.1 |
| 20260505014949 | 71 | 352 | 7.0 | 9.0 | 0.00 | 0.00 | 0.00 | 30 | 1005.1 |
| 20260505014445 | 71 | 327 | 4.0 | 4.0 | 0.00 | 0.00 | 0.00 | 32 | 1005.1 |
| 20260505013943 | 72 | 317 | 4.0 | 6.0 | 0.00 | 0.00 | 0.00 | 32 | 1005.2 |
| 20260505013440 | 72 | 347 | 5.0 | 6.0 | 0.00 | 0.00 | 0.00 | 30 | 1005.1 |
| 20260505012937 | 73 | 341 | 4.0 | 6.0 | 0.00 | 0.00 | 0.00 | 32 | 1005.1 |
| 20260505012435 | 73 | 323 | 6.0 | 7.0 | 0.00 | 0.00 | 0.00 | 28 | 1005.2 |
| 20260505011931 | 73 | 325 | 6.0 | 8.0 | 0.00 | 0.00 | 0.00 | 26 | 1005.2 |
| 20260505011427 | 74 | 330 | 5.0 | 6.0 | 0.00 | 0.00 | 0.00 | 29 | 1005.1 |
| 20260505010925 | 74 | 336 | 4.0 | 6.0 | 0.00 | 0.00 | 0.00 | 26 | 1005.3 |
| 20260505010420 | 74 | 333 | 7.0 | 8.0 | 0.00 | 0.00 | 0.00 | 26 | 1005.2 |
| 20260505005916 | 75 | 337 | 5.0 | 7.0 | 0.00 | 0.00 | 0.00 | 25 | 1005.2 |
| 20260505005413 | 74 | 325 | 5.0 | 6.0 | 0.00 | 0.00 | 0.00 | 30 | 1005.2 |
| 20260505004911 | 75 | 358 | 8.0 | 10.0 | 0.00 | 0.00 | 0.00 | 28 | 1005.3 |
| 20260505004407 | 75 | 327 | 7.0 | 8.0 | 0.00 | 0.00 | 0.00 | 28 | 1005.2 |
| 20260505003904 | 75 | 306 | 5.0 | 7.0 | 0.00 | 0.00 | 0.00 | 26 | 1005.3 |
| 20260505003401 | 75 | 302 | 9.0 | 11.0 | 0.00 | 0.00 | 0.00 | 24 | 1005.3 |
| 20260505002857 | 76 | 354 | 8.0 | 9.0 | 0.00 | 0.00 | 0.00 | 28 | 1005.2 |
| 20260505002354 | 76 | 296 | 4.0 | 4.0 | 0.00 | 0.00 | 0.00 | 26 | 1005.4 |
| 20260505001853 | 76 | 329 | 6.0 | 7.0 | 0.00 | 0.00 | 0.00 | 26 | 1005.3 |
| 20260505001349 | 76 | 285 | 8.0 | 10.0 | 0.00 | 0.00 | 0.00 | 26 | 1005.3 |
| 20260505000847 | 76 | 343 | 6.0 | 8.0 | 0.00 | 0.00 | 0.00 | 30 | 1005.1 |
| 20260505000344 | 76 | 335 | 7.0 | 8.0 | 0.00 | 0.00 | 0.00 | 26 | 1005.3 |
| 20260504235841 | 76 | 338 | 6.0 | 9.0 | 0.00 | 0.00 | 0.00 | 30 | 1005.2 |
| 20260504235338 | 76 | 352 | 6.0 | 8.0 | 0.00 | 0.00 | 0.00 | 30 | 1005.3 |
| 20260504234834 | 76 | 358 | 8.0 | 10.0 | 0.00 | 0.00 | 0.00 | 30 | 1005.2 |
| 20260504234332 | 76 | 356 | 9.0 | 11.0 | 0.00 | 0.00 | 0.00 | 27 | 1005.2 |
| 20260504233828 | 76 | 337 | 6.0 | 9.0 | 0.00 | 0.00 | 0.00 | 30 | 1005.2 |
| 20260504233324 | 76 | 340 | 10.0 | 14.0 | 0.00 | 0.00 | 0.00 | 29 | 1005.2 |
| 20260504232821 | 76 | 3 | 6.0 | 7.0 | 0.00 | 0.00 | 0.00 | 31 | 1005.3 |
| 20260504232318 | 76 | 349 | 9.0 | 11.0 | 0.00 | 0.00 | 0.00 | 30 | 1005.4 |
| 20260504231815 | 76 | 351 | 7.0 | 9.0 | 0.00 | 0.00 | 0.00 | 33 | 1005.4 |
| 20260504231312 | 76 | 333 | 7.0 | 10.0 | 0.00 | 0.00 | 0.00 | 32 | 1005.4 |
| 20260504230808 | 77 | 329 | 6.0 | 7.0 | 0.00 | 0.00 | 0.00 | 32 | 1005.4 |
| 20260504230306 | 77 | 339 | 7.0 | 8.0 | 0.00 | 0.00 | 0.00 | 29 | 1005.4 |
| 20260504225804 | 77 | 304 | 5.0 | 7.0 | 0.00 | 0.00 | 0.00 | 32 | 1005.2 |
| 20260504225300 | 77 | 329 | 6.0 | 7.0 | 0.00 | 0.00 | 0.00 | 31 | 1005.5 |
| 20260504224757 | 77 | 351 | 12.0 | 15.0 | 0.00 | 0.00 | 0.00 | 30 | 1005.5 |
| 20260504224255 | 76 | 339 | 9.0 | 10.0 | 0.00 | 0.00 | 0.00 | 31 | 1005.6 |
| 20260504223751 | 77 | 342 | 8.0 | 13.0 | 0.00 | 0.00 | 0.00 | 32 | 1005.6 |
| 20260504223247 | 76 | 337 | 11.0 | 13.0 | 0.00 | 0.00 | 0.00 | 31 | 1005.6 |
| 20260504222744 | 76 | 335 | 14.0 | 18.0 | 0.00 | 0.00 | 0.00 | 29 | 1005.7 |
| 20260504222240 | 76 | 343 | 9.0 | 10.0 | 0.00 | 0.00 | 0.00 | 31 | 1005.6 |
| 20260504221738 | 77 | 337 | 7.0 | 9.0 | 0.00 | 0.00 | 0.00 | 31 | 1005.4 |
| 20260504221235 | 77 | 347 | 9.0 | 11.0 | 0.00 | 0.00 | 0.00 | 31 | 1005.6 |
| 20260504220732 | 77 | 312 | 10.0 | 13.0 | 0.00 | 0.00 | 0.00 | 31 | 1005.7 |
| 20260504220229 | 76 | 346 | 12.0 | 13.0 | 0.00 | 0.00 | 0.00 | 27 | 1005.6 |
| 20260504215726 | 76 | 346 | 10.0 | 13.0 | 0.00 | 0.00 | 0.00 | 31 | 1005.9 |
| 20260504215223 | 76 | 321 | 9.0 | 13.0 | 0.00 | 0.00 | 0.00 | 30 | 1006.1 |
| 20260504214719 | 76 | 315 | 7.0 | 9.0 | 0.00 | 0.00 | 0.00 | 32 | 1005.9 |
| 20260504214215 | 77 | 309 | 12.0 | 16.0 | 0.00 | 0.00 | 0.00 | 31 | 1006.2 |
| 20260504213712 | 76 | 327 | 9.0 | 11.0 | 0.00 | 0.00 | 0.00 | 31 | 1006.1 |
| 20260504213208 | 77 | 322 | 14.0 | 17.0 | 0.00 | 0.00 | 0.00 | 29 | 1006.2 |
| 20260504212706 | 77 | 343 | 11.0 | 15.0 | 0.00 | 0.00 | 0.00 | 31 | 1006.2 |
| 20260504212202 | 77 | 355 | 15.0 | 17.0 | 0.00 | 0.00 | 0.00 | 27 | 1006.2 |
| 20260504211659 | 77 | 338 | 14.0 | 15.0 | 0.00 | 0.00 | 0.00 | 30 | 1006.2 |
| 20260504211155 | 77 | 331 | 9.0 | 9.0 | 0.00 | 0.00 | 0.00 | 31 | 1006.0 |
| 20260504210653 | 77 | 355 | 10.0 | 13.0 | 0.00 | 0.00 | 0.00 | 31 | 1006.2 |
| 20260504210150 | 77 | 350 | 10.0 | 11.0 | 0.00 | 0.00 | 0.00 | 29 | 1006.2 |
| 20260504205647 | 78 | 322 | 14.0 | 17.0 | 0.00 | 0.00 | 0.00 | 27 | 1006.3 |
| 20260504205144 | 78 | 316 | 9.0 | 13.0 | 0.00 | 0.00 | 0.00 | 27 | 1006.3 |
| 20260504204643 | 78 | 358 | 8.0 | 9.0 | 0.00 | 0.00 | 0.00 | 32 | 1006.4 |
| 20260504204141 | 78 | 16 | 8.0 | 13.0 | 0.00 | 0.00 | 0.00 | 29 | 1006.1 |
| 20260504203640 | 78 | 323 | 13.0 | 16.0 | 0.00 | 0.00 | 0.00 | 25 | 1006.2 |
| 20260504203137 | 78 | 320 | 10.0 | 11.0 | 0.00 | 0.00 | 0.00 | 28 | 1006.4 |
| 20260504202637 | 77 | 342 | 8.0 | 9.0 | 0.00 | 0.00 | 0.00 | 32 | 1006.2 |
| 20260504202134 | 78 | 348 | 13.0 | 18.0 | 0.00 | 0.00 | 0.00 | 29 | 1006.1 |
| 20260504201631 | 78 | 348 | 10.0 | 13.0 | 0.00 | 0.00 | 0.00 | 26 | 1006.1 |
| 20260504201129 | 78 | 339 | 12.0 | 14.0 | 0.00 | 0.00 | 0.00 | 29 | 1006.1 |
| 20260504200626 | 78 | 353 | 12.0 | 15.0 | 0.00 | 0.00 | 0.00 | 29 | 1006.2 |
| 20260504200122 | 78 | 358 | 11.0 | 13.0 | 0.00 | 0.00 | 0.00 | 30 | 1006.4 |
| 20260504195618 | 78 | 2 | 8.0 | 9.0 | 0.00 | 0.00 | 0.00 | 30 | 1006.2 |
| 20260504195115 | 77 | 48 | 2.0 | 3.0 | 0.00 | 0.00 | 0.00 | 33 | 1006.1 |
| 20260504194612 | 77 | 19 | 0.0 | 0.0 | 0.00 | 0.00 | 0.00 | 33 | 1006.1 |
| 20260504194107 | 77 | 65 | 2.0 | 2.0 | 0.00 | 0.00 | 0.00 | 37 | 1006.3 |
| 20260504193604 | 75 | 45 | 2.0 | 2.0 | 0.00 | 0.00 | 0.00 | 39 | 1006.5 |
| 20260504193102 | 75 | 356 | 1.0 | 1.0 | 0.00 | 0.00 | 0.00 | 37 | 1006.4 |
| 20260504192600 | 75 | 33 | 1.0 | 1.0 | 0.00 | 0.00 | 0.00 | 37 | 1006.6 |
| 20260504192058 | 75 | 104 | 0.0 | 1.0 | 0.00 | 0.00 | 0.00 | 38 | 1006.5 |
| 20260504191556 | 74 | 86 | 0.0 | 0.0 | 0.00 | 0.00 | 0.00 | 39 | 1006.7 |
| 20260504191052 | 72 | 78 | 2.0 | 2.0 | 0.00 | 0.00 | 0.00 | 38 | 1006.8 |
| 20260504190548 | 73 | 69 | 2.0 | 2.0 | 0.00 | 0.00 | 0.00 | 42 | 1006.9 |
| 20260504190044 | 73 | 73 | 1.0 | 1.0 | 0.00 | 0.00 | 0.00 | 42 | 1006.9 |
| 20260504185542 | 72 | 152 | 1.0 | 2.0 | 0.00 | 0.00 | 0.00 | 43 | 1006.8 |
| 20260504185038 | 72 | 93 | 2.0 | 2.0 | 0.00 | 0.00 | 0.00 | 44 | 1006.9 |
| 20260504184533 | 72 | 130 | 1.0 | 1.0 | 0.00 | 0.00 | 0.00 | 43 | 1007.0 |
| 20260504184029 | 71 | 158 | 1.0 | 1.0 | 0.00 | 0.00 | 0.00 | 42 | 1006.9 |
| 20260504183526 | 71 | 79 | 2.0 | 4.0 | 0.00 | 0.00 | 0.00 | 45 | 1007.2 |
| 20260504183025 | 71 | 68 | 2.0 | 2.0 | 0.00 | 0.00 | 0.00 | 44 | 1007.3 |
| 20260504182521 | 69 | 78 | 1.0 | 1.0 | 0.00 | 0.00 | 0.00 | 43 | 1007.4 |
| 20260504182018 | 70 | 73 | 2.0 | 1.0 | 0.00 | 0.00 | 0.00 | 45 | 1007.3 |
| 20260504181515 | 70 | 109 | 3.0 | 3.0 | 0.00 | 0.00 | 0.00 | 42 | 1007.3 |
| 20260504181014 | 69 | 101 | 1.0 | 1.0 | 0.00 | 0.00 | 0.00 | 44 | 1007.4 |
| 20260504180512 | 68 | 103 | 2.0 | 2.0 | 0.00 | 0.00 | 0.00 | 46 | 1007.3 |
| 20260504180011 | 67 | 143 | 1.0 | 1.0 | 0.00 | 0.00 | 0.00 | 46 | 1007.6 |
| 20260504175508 | 67 | 29 | 2.0 | 2.0 | 0.00 | 0.00 | 0.00 | 49 | 1007.4 |
| 20260504175005 | 67 | 97 | 4.0 | 4.0 | 0.00 | 0.00 | 0.00 | 48 | 1007.2 |
| 20260504174502 | 66 | 99 | 2.0 | 2.0 | 0.00 | 0.00 | 0.00 | 46 | 1007.5 |
| 20260504173959 | 67 | 100 | 2.0 | 2.0 | 0.00 | 0.00 | 0.00 | 47 | 1007.5 |
| 20260504173455 | 66 | 57 | 1.0 | 1.0 | 0.00 | 0.00 | 0.00 | 48 | 1007.7 |
| 20260504172953 | 66 | 104 | 0.0 | 0.0 | 0.00 | 0.00 | 0.00 | 47 | 1007.5 |
| 20260504172449 | 65 | 103 | 4.0 | 3.0 | 0.00 | 0.00 | 0.00 | 47 | 1007.8 |
| 20260504171946 | 64 | 86 | 1.0 | 1.0 | 0.00 | 0.00 | 0.00 | 48 | 1007.7 |
| 20260504171443 | 63 | 110 | 2.0 | 2.0 | 0.00 | 0.00 | 0.00 | 49 | 1007.7 |
| 20260504170940 | 63 | 97 | 2.0 | 2.0 | 0.00 | 0.00 | 0.00 | 50 | 1007.7 |
| 20260504170436 | 64 | 103 | 0.0 | 0.0 | 0.00 | 0.00 | 0.00 | 48 | 1007.9 |
| 20260504160355 | 59 | 104 | 1.0 | 1.0 | 0.00 | 0.00 | 0.00 | 55 | 1008.3 |